Weather History for Fergus Falls, MN

Change the Weather History Date:

Thursday, June 13, 2013

  Actual Average Record
Temperature  
Mean Temperature 65 °F -  
Max Temperature 77 °F 77 °F 92 °F (1991)
Min Temperature 53 °F 55 °F 35 °F (1969)
Growing Degree Days 15 (Base 50)    
Moisture  
Dew Point 50 °F    
Average Humidity 58    
Maximum Humidity 82    
Minimum Humidity 34    
Precipitation  
Precipitation 0.00 in - - ()
Sea Level Pressure  
Sea Level Pressure 30.09 in    
Wind  
Wind Speed 4 mph (East)    
Max Wind Speed 9 mph    
Max Gust Speed -    
Visibility 10 miles    
Events      
Averages and records for this station are not official NWS values.
T = Trace of Precipitation, MM = Missing Value Source: NWS Daily Summary

Daily Weather History Graph

Daily Weather History Graph

Search for Another Location

Airport:

Trip Planner

Search our weather history database for the weather conditions in past years. The results will help you decide how hot, cold, wet, or windy it might be!

Date:

Astronomy

Jun. 13, 2013 Rise Set
Actual Time 5:32 AM CDT 9:17 PM CDT
Civil Twilight 4:53 AM CDT 9:56 PM CDT
Nautical Twilight 4:01 AM CDT 10:48 PM CDT
Astronomical Twilight 2:47 AM CDT 12:02 AM CDT
Moon 10:23 AM CDT (6/13) No Moon Set
Length of Visible Light 17h 03m
Length of Day
15h 45m
Waxing Crescent, 22% of the Moon is Illuminated
Jun 13
Waxing Crescent
Jun 16
First Quarter
Jun 23
Full
Jun 29
Last Quarter
Jul 8
New

Hourly Weather History & Observations

Time (CDT) Temp. Dew Point Humidity Pressure Visibility Wind Dir Wind Speed Gust Speed Precip Events Conditions
12:13 AM 55.4 °F 48.2 °F 77% 30.06 in 7.0 mi NNW 5.8 mph - N/A   Clear
12:33 AM 57.2 °F 50.0 °F 77% 30.06 in 10.0 mi Calm Calm - N/A   Clear
12:53 AM 55.4 °F 48.2 °F 77% 30.06 in 10.0 mi Calm Calm - N/A   Clear
1:13 AM 55.4 °F 48.2 °F 77% 30.07 in 10.0 mi North 3.5 mph - N/A   Clear
1:33 AM 53.6 °F 48.2 °F 82% 30.08 in 10.0 mi North 6.9 mph - N/A   Clear
1:53 AM 53.6 °F 48.2 °F 82% 30.09 in 10.0 mi NNW 5.8 mph - N/A   Clear
2:13 AM 55.4 °F 48.2 °F 77% 30.10 in 10.0 mi NNW 3.5 mph - N/A   Clear
2:33 AM 55.4 °F 48.2 °F 77% 30.10 in 10.0 mi Calm Calm - N/A   Clear
2:53 AM 53.6 °F 48.2 °F 82% 30.10 in 10.0 mi North 3.5 mph - N/A   Clear
3:13 AM 53.6 °F 48.2 °F 82% 30.10 in 10.0 mi NNE 4.6 mph - N/A   Clear
3:33 AM 55.4 °F 48.2 °F 77% 30.10 in 10.0 mi NNE 4.6 mph - N/A   Clear
3:53 AM 55.4 °F 48.2 °F 77% 30.09 in 10.0 mi NNE 4.6 mph - N/A   Clear
4:13 AM 55.4 °F 48.2 °F 77% 30.09 in 10.0 mi NNE 6.9 mph - N/A   Clear
4:33 AM 55.4 °F 48.2 °F 77% 30.10 in 10.0 mi NE 3.5 mph - N/A   Clear
4:53 AM 55.4 °F 48.2 °F 77% 30.11 in 10.0 mi Calm Calm - N/A   Clear
5:14 AM 53.6 °F 48.2 °F 82% 30.12 in 10.0 mi Calm Calm - N/A   Clear
5:33 AM 53.6 °F 48.2 °F 82% 30.12 in 10.0 mi NNE 3.5 mph - N/A   Clear
5:53 AM 53.6 °F 48.2 °F 82% 30.13 in 10.0 mi NNE 3.5 mph - N/A   Clear
6:14 AM 53.6 °F 48.2 °F 82% 30.13 in 10.0 mi West 3.5 mph - N/A   Clear
6:33 AM 53.6 °F 48.2 °F 82% 30.13 in 10.0 mi Calm Calm - N/A   Clear
6:53 AM 57.2 °F 51.8 °F 82% 30.13 in 10.0 mi Calm Calm - N/A   Clear
7:14 AM 57.2 °F 51.8 °F 82% 30.11 in 10.0 mi Calm Calm - N/A   Clear
7:33 AM 60.8 °F 51.8 °F 72% 30.11 in 10.0 mi Calm Calm - N/A   Clear
7:53 AM 62.6 °F 53.6 °F 72% 30.12 in 10.0 mi ENE 3.5 mph - N/A   Clear
8:14 AM 64.4 °F 53.6 °F 68% 30.13 in 10.0 mi East 4.6 mph - N/A   Clear
8:33 AM 64.4 °F 53.6 °F 68% 30.12 in 10.0 mi ENE 5.8 mph - N/A   Clear
8:53 AM 66.2 °F 53.6 °F 64% 30.12 in 10.0 mi East 4.6 mph - N/A   Clear
9:14 AM 66.2 °F 53.6 °F 64% 30.13 in 10.0 mi Calm Calm - N/A   Clear
9:33 AM 68.0 °F 53.6 °F 60% 30.13 in 10.0 mi Calm Calm - N/A   Clear
9:53 AM 69.8 °F 51.8 °F 53% 30.12 in 10.0 mi East 4.6 mph - N/A   Clear
10:13 AM 69.8 °F 51.8 °F 53% 30.12 in 10.0 mi Calm Calm - N/A   Clear
10:33 AM 69.8 °F 53.6 °F 56% 30.13 in 10.0 mi Calm Calm - N/A   Clear
10:53 AM 69.8 °F 51.8 °F 53% 30.13 in 10.0 mi Calm Calm - N/A   Clear
11:13 AM 71.6 °F 51.8 °F 50% 30.14 in 10.0 mi Calm Calm - N/A   Clear
11:33 AM 71.6 °F 48.2 °F 43% 30.14 in 10.0 mi Calm Calm - N/A   Clear
11:53 AM 71.6 °F 50.0 °F 46% 30.13 in 10.0 mi Calm Calm - N/A   Clear
12:13 PM 73.4 °F 51.8 °F 47% 30.13 in 10.0 mi East 6.9 mph - N/A   Clear
12:33 PM 73.4 °F 51.8 °F 47% 30.12 in 10.0 mi ENE 4.6 mph - N/A   Clear
12:53 PM 73.4 °F 50.0 °F 44% 30.12 in 10.0 mi North 4.6 mph - N/A   Scattered Clouds
1:13 PM 73.4 °F 48.2 °F 41% 30.11 in 10.0 mi ESE 8.1 mph - N/A   Scattered Clouds
1:33 PM 73.4 °F 48.2 °F 41% 30.11 in 10.0 mi ENE 6.9 mph - N/A   Scattered Clouds
1:53 PM 75.2 °F 48.2 °F 38% 30.10 in 10.0 mi East 9.2 mph - N/A   Scattered Clouds
2:13 PM 75.2 °F 48.2 °F 38% 30.10 in 10.0 mi East 3.5 mph - N/A   Scattered Clouds
2:33 PM 75.2 °F 48.2 °F 38% 30.09 in 10.0 mi ESE 6.9 mph - N/A   Clear
2:53 PM 75.2 °F 48.2 °F 38% 30.09 in 10.0 mi East 8.1 mph - N/A   Clear
3:13 PM 75.2 °F 50.0 °F 41% 30.08 in 10.0 mi Calm Calm - N/A   Clear
3:33 PM 75.2 °F 48.2 °F 38% 30.08 in 10.0 mi SE 5.8 mph - N/A   Clear
3:53 PM 75.2 °F 48.2 °F 38% 30.07 in 10.0 mi ESE 3.5 mph - N/A   Clear
4:13 PM 77.0 °F 48.2 °F 36% 30.07 in 10.0 mi SE 4.6 mph - N/A   Clear
4:33 PM 75.2 °F 48.2 °F 38% 30.06 in 10.0 mi Calm Calm - N/A   Clear
4:53 PM 75.2 °F 50.0 °F 41% 30.06 in 10.0 mi ESE 6.9 mph - N/A   Clear
5:13 PM 77.0 °F 48.2 °F 36% 30.05 in 10.0 mi ESE 8.1 mph - N/A   Clear
5:33 PM 77.0 °F 48.2 °F 36% 30.05 in 10.0 mi SSE 9.2 mph - N/A   Clear
5:53 PM 77.0 °F 46.4 °F 34% 30.05 in 10.0 mi SE 5.8 mph - N/A   Clear
6:13 PM 75.2 °F 48.2 °F 38% 30.04 in 10.0 mi Calm Calm - N/A   Clear
6:33 PM 77.0 °F 50.0 °F 39% 30.04 in 10.0 mi ESE 3.5 mph - N/A   Clear
6:53 PM 75.2 °F 50.0 °F 41% 30.04 in 10.0 mi Calm Calm - N/A   Clear
7:13 PM 77.0 °F 50.0 °F 39% 30.04 in 10.0 mi ESE 4.6 mph - N/A   Clear
7:33 PM 75.2 °F 51.8 °F 44% 30.03 in 10.0 mi ESE 4.6 mph - N/A   Clear
7:53 PM 75.2 °F 48.2 °F 38% 30.03 in 10.0 mi ESE 6.9 mph - N/A   Clear
8:13 PM 75.2 °F 50.0 °F 41% 30.03 in 10.0 mi ESE 5.8 mph - N/A   Clear
8:33 PM 73.4 °F 51.8 °F 47% 30.03 in 10.0 mi SE 4.6 mph - N/A   Clear
8:53 PM 73.4 °F 51.8 °F 47% 30.02 in 10.0 mi SE 5.8 mph - N/A   Clear
9:13 PM 71.6 °F 51.8 °F 50% 30.03 in 10.0 mi SE 5.8 mph - N/A   Clear
9:33 PM 71.6 °F 51.8 °F 50% 30.03 in 10.0 mi ESE 5.8 mph - N/A   Clear
9:53 PM 71.6 °F 53.6 °F 53% 30.04 in 10.0 mi SE 5.8 mph - N/A   Clear
10:13 PM 69.8 °F 53.6 °F 56% 30.05 in 10.0 mi ESE 4.6 mph - N/A   Clear
10:34 PM 69.8 °F 51.8 °F 53% 30.05 in 10.0 mi SE 8.1 mph - N/A   Clear
10:53 PM 69.8 °F 53.6 °F 56% 30.04 in 10.0 mi ESE 8.1 mph - N/A   Clear
11:13 PM 69.8 °F 53.6 °F 56% 30.04 in 10.0 mi ESE 9.2 mph - N/A   Clear
11:34 PM 68.0 °F 53.6 °F 60% 30.04 in 10.0 mi SE 9.2 mph - N/A   Clear
11:53 PM 68.0 °F 53.6 °F 60% 30.03 in 10.0 mi SE 9.2 mph - N/A   Clear